Helicity
44 37 7 -8 73 128 104 153 196 171 184 179 175 168 143 108 106 78 60 70 77 70 74 77 76 92 116 140 137 166 211 257 283 253 274 183 85 60 78 76 82 79 97
70 41 22 19 46 105 118 94 152 185 189 180 176 181 167 139 108 90 85 74 68 64 76 77 88 86 119 109 131 179 218 248 318 347 341 274 257 54 70 96 98 73 94
51 44 53 44 46 98 90 90 94 160 167 142 148 179 172 161 137 96 76 74 60 58 65 58 86 101 138 196 179 171 220 234 353 310 446 361 298 325 254 47 128 103 116
87 88 92 95 77 88 62 50 81 127 171 164 168 161 161 146 124 93 78 68 54 41 35 57 74 99 160 201 192 231 273 252 302 345 292 240 393 352 327 131 95 69 78
-42 120 188 154 137 127 109 118 63 72 137 164 162 163 145 124 119 101 88 49 51 39 49 66 80 115 157 170 198 236 270 322 358 388 447 320 287 226 268 289 182 84 53
135 188 71 115 114 98 107 105 121 79 114 148 146 146 100 49 73 69 41 34 36 44 71 69 83 97 122 125 209 228 276 408 290 353 356 446 466 391 409 329 166 33 6
115 124 28 159 93 29 98 108 136 100 114 122 95 44 21 27 24 29 22 21 62 64 74 114 59 81 74 146 291 274 238 228 331 298 334 264 287 389 320 197 149 61 65
7 28 85 264 103 58 122 178 202 198 236 207 139 101 96 78 131 99 146 164 183 97 71 61 156 122 77 76 180 227 318 392 312 315 405 311 260 236 219 115 90 126 151
116 187 192 151 65 63 232 293 262 193 214 209 182 210 170 173 189 242 209 164 140 146 156 141 100 79 45 23 89 116 112 121 158 173 172 156 128 131 145 154 126 116 126
148 150 170 235 226 218 235 319 300 240 241 295 287 262 252 275 258 306 242 173 136 141 158 115 52 85 68 15 48 44 26 67 108 182 171 156 223 219 154 200 205 168 158
117 112 101 90 163 305 326 215 240 152 130 271 217 258 244 197 162 133 157 125 65 80 65 37 10 63 66 -42 19 13 16 -15 37 64 91 33 26 76 99 99 90 145 211
91 91 98 133 87 226 93 59 61 59 78 97 57 102 128 79 82 59 34 42 25 33 13 16 36 46 75 70 108 107 99 110 115 123 127 86 30 52 102 170 208 236 230
102 90 72 70 69 79 56 48 35 35 28 24 14 10 18 30 14 1 -4 -11 7 12 15 26 45 70 97 118 123 129 104 102 120 99 73 98 128 117 121 160 132 221 317
119 124 106 75 62 45 30 25 25 25 24 10 5 17 20 19 18 19 28 30 35 39 51 71 91 107 118 98 109 104 109 84 74 120 122 117 75 51 23 99 11 25 179
100 102 99 93 63 45 28 19 10 9 6 2 12 20 19 22 20 32 33 32 46 58 70 98 119 129 133 143 170 176 154 147 143 118 88 88 100 118 116 89 20 68 -69
82 80 71 64 55 35 19 5 -6 -9 -10 11 16 16 21 27 30 30 43 60 60 66 74 90 101 110 107 134 147 142 122 135 145 164 181 179 162 135 143 125 123 104 156
64 69 61 46 31 25 22 16 14 11 11 14 17 18 16 17 22 20 16 11 15 19 18 24 34 44 47 56 74 130 132 86 42 39 47 71 107 124 135 150 150 141 113
78 83 76 72 65 56 45 29 23 21 11 5 -3 -9 -16 -17 -15 -16 -15 -19 -29 -36 -42 -31 -18 7 25 32 38 48 38 53 78 70 61 81 89 101 109 99 75 99 154
69 72 78 80 71 57 54 34 21 12 2 -5 -13 -15 -10 -4 8 16 15 8 11 33 50 64 76 70 76 86 98 115 101 83 61 51 57 76 101 99 88 133 108 31 3
116 113 101 85 68 70 59 32 16 8 1 -2 -4 2 12 20 34 41 44 47 55 60 70 71 69 64 53 81 91 101 122 104 91 57 53 41 51 70 94 126 120 78 -17
144 134 122 97 94 103 68 26 15 9 10 -0 3 11 17 21 38 41 55 64 65 62 70 68 73 79 72 74 95 88 97 96 80 67 74 92 44 45 70 89 95 67 37
152 137 126 113 111 99 71 37 24 36 23 15 17 19 26 39 44 53 67 74 91 94 92 86 80 94 85 79 82 65 37 35 79 93 111 85 47 38 46 57 47 8 28
146 135 119 123 115 99 76 56 60 65 51 35 28 34 41 49 58 64 86 98 104 99 101 98 100 114 110 89 59 45 26 23 58 84 64 43 62 40 48 44 20 6 41
159 151 140 130 115 110 102 77 80 71 55 47 51 59 63 72 74 79 95 101 106 100 85 72 73 70 79 83 76 89 76 48 65 73 103 88 78 42 56 43 40 41 69
197 180 157 144 127 132 114 98 87 83 49 43 53 54 52 52 56 66 78 91 88 73 55 50 63 58 56 70 32 33 69 64 53 38 84 95 130 95 92 94 81 72 54
221 199 163 151 142 132 117 109 94 81 81 82 90 85 69 67 63 68 78 83 80 57 49 33 44 56 27 15 24 24 25 16 11 54 56 98 94 130 90 89 90 79 72
Wind_Speed
80 76 76 76 81 83 79 79 80 74 66 62 64 65 66 62 62 63 64 65 64 63 63 66 67 66 66 58 58 54 63 60 58 65 65 66 68 56 67 60 59 56 51
81 78 75 74 74 77 78 76 77 76 70 63 61 62 61 61 64 62 63 63 67 68 67 69 69 70 69 71 67 61 64 67 61 64 71 69 72 56 64 59 66 62 61
76 75 75 71 67 72 73 74 73 75 71 65 62 61 61 62 65 68 67 66 68 71 74 76 77 77 74 72 71 69 63 68 60 58 64 64 69 68 53 53 59 56 61
62 63 63 60 59 60 65 66 68 70 70 64 63 62 64 67 66 69 70 75 78 80 82 82 84 83 78 78 75 71 69 65 66 59 65 72 65 56 63 56 58 54 53
4 45 56 54 48 46 50 53 57 61 61 59 59 59 63 63 65 69 79 82 86 88 90 89 86 83 82 81 75 71 68 66 63 63 63 70 72 74 74 76 67 59 52
54 56 49 49 45 41 44 51 56 58 58 53 52 56 57 56 61 67 73 78 80 77 76 76 74 72 72 73 66 62 60 59 60 64 64 64 71 72 76 85 87 77 67
51 58 6 8 21 39 39 41 50 54 52 48 43 43 48 50 57 60 58 55 51 51 54 61 69 63 61 55 52 50 52 56 56 59 66 64 70 75 75 78 82 74 69
35 2 5 4 5 29 34 34 36 36 34 34 39 42 47 47 45 45 44 44 46 47 52 50 51 48 52 55 43 41 43 42 48 55 57 59 71 75 73 72 72 73 67
22 17 14 12 16 4 10 20 21 21 23 28 30 35 36 33 36 36 37 41 45 47 47 47 47 47 45 35 34 36 43 47 42 41 40 48 62 62 55 53 60 60 72
14 9 13 13 20 28 5 7 7 12 16 19 20 22 22 24 24 28 30 36 42 42 43 45 44 42 39 39 34 30 8 21 35 36 44 51 52 53 60 66 68 69 71
17 23 20 15 11 23 23 25 18 16 4 10 11 21 23 16 22 27 33 39 40 37 39 34 28 39 40 27 23 25 18 4 10 16 22 29 30 34 38 44 50 64 71
11 12 19 23 16 23 18 14 11 4 8 13 14 22 16 23 25 24 28 34 33 36 34 39 44 46 49 48 49 49 48 44 33 36 44 47 45 43 46 50 54 57 59
19 16 17 17 13 24 20 20 25 15 9 15 24 21 18 19 22 26 29 31 36 40 44 48 51 54 56 58 56 55 50 48 51 53 50 52 62 67 67 69 72 70 72
28 28 28 24 25 25 25 26 23 21 19 18 16 20 23 27 32 35 39 42 46 49 53 56 57 58 58 52 54 53 55 54 53 59 59 62 66 70 75 81 80 80 82
25 26 28 28 26 26 26 26 24 17 16 18 26 30 35 39 42 45 48 50 53 55 58 59 60 60 59 56 66 66 61 65 68 67 65 69 73 80 86 88 91 92 94
25 25 26 27 28 27 26 24 22 18 19 40 41 43 46 48 50 51 54 56 57 59 61 61 62 61 59 64 67 68 68 68 68 73 73 75 79 81 85 89 96 101 105
21 23 25 26 28 30 32 33 35 38 42 44 46 48 50 51 52 54 56 58 60 62 62 62 62 63 64 66 70 71 72 73 72 75 77 80 79 83 87 94 101 105 108
15 18 22 25 28 30 32 36 38 40 43 44 46 48 50 50 50 53 56 59 60 60 59 60 62 65 65 68 71 75 73 73 75 77 76 79 80 78 82 92 99 104 109
16 20 24 27 29 32 35 38 39 41 42 47 48 49 51 52 54 57 60 61 63 65 68 69 71 71 72 73 77 81 80 78 76 73 72 74 76 76 79 87 96 100 104
18 21 23 26 29 33 37 39 41 44 47 51 53 53 56 57 58 60 62 65 66 66 70 71 69 69 73 74 79 81 79 79 75 70 68 65 66 70 75 78 85 94 95
16 18 20 23 27 30 34 38 42 46 49 52 55 57 58 59 59 61 62 66 67 68 70 72 73 72 75 77 82 83 81 79 78 75 71 66 65 71 71 63 63 78 80
14 15 19 23 28 31 33 36 41 45 49 54 57 59 60 59 60 63 64 64 67 71 74 77 77 74 77 80 82 83 81 79 77 75 68 63 68 67 64 59 48 55 55
16 18 20 25 29 31 33 39 41 44 49 54 57 58 58 59 61 63 65 67 69 72 76 79 82 84 82 83 83 84 82 80 75 68 64 61 60 52 56 55 49 44 43
21 23 25 28 30 30 32 38 45 48 52 57 59 59 60 63 62 63 64 68 72 76 79 83 84 84 82 80 79 82 82 79 72 65 58 58 58 55 53 52 48 45 35
23 24 27 30 33 34 37 40 42 43 49 55 59 61 62 63 65 66 68 70 71 74 79 78 78 82 84 82 86 90 88 80 72 68 60 58 57 54 51 44 45 44 41
19 23 26 30 32 33 36 38 38 42 50 56 58 60 61 63 65 69 72 70 73 75 74 74 75 78 81 84 89 92 88 83 71 67 61 55 53 47 42 39 46 49 48
Wind_Direction
303 301 297 292 279 270 265 263 260 257 259 261 261 264 265 270 274 276 279 282 284 286 286 285 284 281 280 281 279 276 273 272 274 278 275 273 277 280 278 282 282 282 283
304 303 301 296 285 272 266 261 259 256 256 258 261 264 268 272 275 280 283 284 284 283 284 284 284 282 282 280 280 277 276 275 267 274 273 274 275 277 280 279 276 279 279
309 311 306 299 291 273 266 261 259 256 255 256 259 263 268 273 276 278 283 285 286 284 283 283 283 281 282 281 279 277 275 275 270 263 269 274 276 284 284 277 274 277 277
323 325 320 310 297 281 269 262 259 255 253 254 257 260 265 270 276 279 282 284 285 284 283 283 283 282 281 280 278 276 273 271 270 269 261 264 282 283 280 283 283 282 280
74 18 341 329 315 295 276 265 259 255 252 253 257 263 267 274 279 281 281 283 285 284 283 283 283 282 280 279 278 276 273 267 265 265 268 265 267 273 279 279 286 288 286
8 6 19 334 325 308 283 267 257 252 250 255 259 265 270 275 280 281 283 287 289 290 288 286 285 285 283 281 278 278 270 260 268 267 267 265 269 269 273 277 280 282 285
28 345 359 148 257 315 300 276 257 248 250 257 262 268 272 275 279 283 289 295 299 304 306 300 289 287 289 283 280 278 276 275 272 271 273 275 271 271 278 278 279 281 282
65 271 248 218 248 298 276 261 254 254 260 267 270 274 272 275 284 291 296 301 301 304 308 317 317 308 292 290 284 286 285 279 282 281 278 279 276 275 277 275 277 279 282
90 91 92 97 110 3 246 260 270 276 284 279 274 272 276 278 285 291 301 303 305 305 315 319 314 311 312 316 305 291 294 290 287 286 280 280 280 281 278 275 279 279 282
101 95 100 103 102 108 118 314 298 316 301 290 288 278 281 292 296 305 317 316 313 313 315 313 313 319 318 336 323 317 12 318 304 294 293 292 288 287 282 278 280 280 280
108 99 106 117 123 123 119 125 148 153 211 236 290 237 244 284 295 323 317 320 320 305 311 294 279 312 318 36 19 14 359 307 255 244 252 253 259 265 268 274 275 279 281
122 120 113 119 135 131 131 151 171 234 203 181 216 216 298 309 291 278 260 281 283 303 269 279 287 294 304 326 325 324 325 326 324 322 318 308 298 277 275 276 271 270 271
127 120 128 129 156 131 132 134 131 148 241 200 175 185 215 242 251 255 264 266 280 290 295 301 306 308 313 316 322 324 327 324 318 316 313 309 306 302 299 298 294 280 275
114 116 116 125 130 132 135 136 141 150 172 192 239 274 281 287 290 292 298 298 302 303 304 310 316 322 326 332 331 330 326 323 320 315 311 308 305 303 301 299 297 295 292
135 128 124 125 131 132 133 134 144 177 224 261 296 303 307 311 311 316 315 315 320 320 320 323 326 328 330 332 327 326 327 322 318 315 312 309 306 303 300 296 293 290 288
136 132 124 124 115 118 124 133 148 174 243 338 333 326 327 327 327 326 326 326 325 326 326 329 331 333 334 331 331 329 326 324 321 317 315 312 310 306 303 298 293 287 284
110 102 94 92 80 71 61 50 42 24 13 7 360 356 351 347 343 338 333 330 329 329 331 334 335 334 333 332 331 331 329 327 325 322 320 317 315 312 308 303 296 289 281
76 67 54 46 42 38 29 12 4 4 360 1 355 354 352 353 351 347 341 339 338 338 339 340 338 336 336 335 334 332 331 330 328 326 325 322 320 318 314 309 301 293 285
26 20 18 17 16 12 8 0 357 356 356 353 351 350 349 348 347 343 339 338 337 337 336 336 335 336 335 336 334 332 331 330 329 328 328 326 324 324 320 314 307 300 290
9 9 10 8 3 360 357 354 351 348 344 343 343 343 341 341 342 341 339 337 336 336 336 336 338 338 335 335 334 334 333 331 332 331 329 327 325 324 321 317 315 306 297
9 7 5 360 357 357 354 349 345 341 340 339 338 338 338 337 338 338 339 337 337 337 337 337 337 338 338 336 334 334 334 334 332 331 331 329 326 322 322 320 315 314 305
5 5 360 355 352 352 351 347 343 341 339 337 336 335 336 336 336 336 337 338 338 337 336 336 335 338 338 336 335 335 336 335 333 330 330 329 326 324 320 318 313 316 309
347 351 349 348 346 345 344 342 343 342 340 338 336 336 336 336 336 336 336 337 337 337 336 336 335 334 336 335 335 336 336 335 333 332 328 324 324 320 322 320 319 318 314
321 329 332 335 337 340 342 338 337 337 336 335 335 335 335 335 335 336 337 336 336 334 333 332 332 332 334 336 338 338 337 336 335 333 329 325 322 321 319 322 323 323 315
312 317 321 325 328 333 334 336 337 339 336 334 333 332 332 332 333 334 334 333 334 333 331 332 333 332 331 335 337 336 338 338 337 335 333 331 330 329 328 325 326 324 319
304 311 317 323 327 331 333 336 338 337 336 334 335 335 334 334 334 333 332 334 332 333 333 333 333 334 333 333 335 337 339 341 343 344 341 336 335 334 333 331 331 327 316